Regional Weather Roundup
Issued by NWS

Home | Current Version | Previous Version | Text Only | Print | Product List | Glossary On
Versions: 1 2 3 4 5 6 7 8 9 10 11 12 13 14 15 16 17 18 19 20 21 22 23 24 25 26 27 28 29 30 31 32 33 34 35 36 37 38 39 40 41 42 43 44 45 46 47 48 49 50
000
ASUS43 KLOT 170010
RWRIL

ILLINOIS REGIONAL WEATHER ROUNDUP
NATIONAL WEATHER SERVICE CHICAGO/ROMEOVILLE IL
700 PM CDT TUE SEP 16 2014

NOTE: "FAIR" INDICATES FEW OR NO CLOUDS BELOW 12,000 FEET WITH NO
SIGNIFICANT WEATHER AND/OR OBSTRUCTIONS TO VISIBILITY.

* THESE STATIONS ARE NOT UNDER NWS QUALITY CONTROL. THEY ALSO MAY NOT
  REPORT WEATHER SUCH AS PRECIPITATION OR FOG.

ILZ001-002-007-009-015-016-024-170100-
NORTHWEST ILLINOIS

CITY           SKY/WX    TMP DP  RH WIND       PRES   REMARKS
MOLINE         CLEAR     64  45  49 NW3       30.09F
6HR MIN TEMP:  64; 6HR MAX TEMP:  68;

STERLING*      CLEAR     57  46  67 CALM      30.10S
SAVANNA*       CLEAR     63  44  50 CALM      30.10S
$$

ILZ003-004-008-010-011-017-018-170100-
NORTH CENTRAL ILLINOIS

CITY           SKY/WX    TMP DP  RH WIND       PRES   REMARKS
ROCKFORD       CLEAR     61  43  51 W3        30.11S
6HR MIN TEMP:  61; 6HR MAX TEMP:  67;

FREEPORT*      CLEAR     60  46  60 SW3       30.12F
ROCHELLE*      CLEAR     59  45  61 CALM      30.11R
DE KALB*       CLEAR     58  43  58 NW3       30.10S
PERU*          CLEAR     62  47  59 SW3       30.10S
$$

ILZ005-006-012>014-019>023-170100-
NORTHEAST ILLINOIS

CITY           SKY/WX    TMP DP  RH WIND       PRES   REMARKS
CHICAGO-OHARE  CLEAR     67  40  37 N7        30.09S
6HR MIN TEMP:  63; 6HR MAX TEMP:  68;

CHICAGO-MIDWAY PTCLDY    63  48  58 E7        30.09S
6HR MIN TEMP:  63; 6HR MAX TEMP:  69;

AURORA         CLEAR     60  43  53 NW5       30.10S
6HR MIN TEMP:  60; 6HR MAX TEMP:  68;

LANSING*       CLEAR     62  45  53 SW3       30.10S
JOLIET*        CLEAR     58  48  71 CALM      30.10F
WAUKEGAN       CLEAR     56  44  64 CALM      30.09F
6HR MIN TEMP:  56; 6HR MAX TEMP:  65;

DUPAGE AIRPORT CLEAR     60  43  53 NW6       30.09S
6HR MIN TEMP:  60; 6HR MAX TEMP:  68;

KANKAKEE*      CLEAR     61  47  59 CALM      30.10S
WHEELING       CLEAR     60  47  61 NE5       30.11F
6HR MIN TEMP:  60; 6HR MAX TEMP:  68;

MORRIS*        CLEAR     60  48  64 SW3       30.09F
ROMEOVILLE*    CLEAR     59  45  58 CALM      30.09F
NORTHERLY ISL    N/A     60  50  69 E6          N/A
$$

LMZ740>746-170100-
SOUTHERN LAKE MICHIGAN

STATION/POSITION SKY/WX   TEMP    WIND        PRES    VSBY  WAVE
                          AIR SEA DIR/SP/G                  HT/PER
                          (F)     (DEG/KT/KT) (MB)    (MI)  (FT/S)
SOUTHERN BUOY              58 65  140/  2/  4 1019.8F         1
WAUKEGAN HARBOR            61     140/  6/  7   N/A
HARRISON CRIB              60      80/  8/ 10   N/A
BURNHAM HARBOR             60      70/  5/  6   N/A
CALUMET HARBOR             61      60/  5/  6 1017.8F
MICHIGAN CITY              60      30/  7/  8   N/A
MICHIGAN CITY 6N           61 65   60/  6/  8   N/A           1/ 5
ST. JOSEPH                 60 67   30/  6/  8   N/A           2/ 4
$$

ILZ025>027-034>036-040-047-049-050-058-095>099-170100-
WEST-CENTRAL ILLINOIS

CITY           SKY/WX    TMP DP  RH WIND       PRES   REMARKS
QUINCY         CLEAR     64  49  57 CALM      30.08F
GALESBURG*     CLEAR     63  49  61 CALM      30.10S
MACOMB*        CLEAR     62  50  65 CALM      30.11S
JACKSONVILLE*  CLEAR     65  53  65 CALM      30.10S
PITTSFIELD*    CLEAR     64  52  64 SE5       30.10S
$$

ILZ028>032-037-038-041>044-048-051>054-059>061-170100-
CENTRAL ILLINOIS

CITY           SKY/WX    TMP DP  RH WIND       PRES   REMARKS
PONTIAC        CLEAR     61  52  72 CALM      30.09F
DECATUR        CLEAR     63  50  62 CALM      30.10F
PEORIA         CLEAR     61  48  62 CALM      30.10S
6HR MIN TEMP:  61; 6HR MAX TEMP:  69;

LACON*         CLEAR     57  49  75 CALM      30.09S
LINCOLN*       CLEAR     62  50  64 CALM      30.07S
SPRINGFIELD    CLEAR     63  50  62 S3        30.10S
6HR MIN TEMP:  62; 6HR MAX TEMP:  68;

TAYLORVILLE    CLEAR     59  52  77 W3        30.10S
$$

ILZ033-039-045-046-055>057-062-063-170100-
EAST-CENTRAL ILLINOIS

CITY           SKY/WX    TMP DP  RH WIND       PRES   REMARKS
CHAMPAIGN      CLEAR     61  50  67 CALM      30.10S
DANVILLE*      CLEAR     59  51  74 CALM      30.07F HAZE
RANTOUL*       CLEAR     65  46  51 CALM      30.10F
MATTOON        CLEAR     60  53  77 S3        30.09S
PARIS*         CLEAR     57  54  89 CALM      30.10F
$$

ILZ079-100>102-170100-
SOUTHWEST ILLINOIS

CITY           SKY/WX    TMP DP  RH WIND       PRES   REMARKS
ALTON          PTCLDY    59  52  77 NW3       30.11F
BELLEVILLE     PTCLDY    62  53  73 CALM      30.10S
CAHOKIA*       CLEAR     61  52  72 E3        30.10F
SPARTA*        PTCLDY    61  52  71 CALM      30.12S
$$

ILZ064>066-069>071-074>076-080>082-084>086-088>090-092>094-170100-
SOUTH-CENTRAL ILLINOIS

CITY           SKY/WX    TMP DP  RH WIND       PRES   REMARKS
CARBONDALE     CLOUDY    61  51  70 CALM      30.11F
6HR MIN TEMP:  61; 6HR MAX TEMP:  63;

CAIRO*         CLEAR     64  54  71 N6        30.10S
EFFINGHAM*     CLEAR     58  52  81 CALM      30.11S
MARION         CLOUDY    61  50  67 N3        30.12F
MT. VERNON     CLOUDY    61  52  72 CALM      30.12F
CENTRALIA*     CLOUDY    60  54  80 CALM      30.11S
SALEM*         MOCLDY    61  56  83 CALM      30.12S
METROPOLIS*    CLEAR     61  54  77 N3        30.09S
$$

ILZ067-068-072-073-078-083-087-091-170100-
SOUTHEAST ILLINOIS

CITY           SKY/WX    TMP DP  RH WIND       PRES   REMARKS
LAWRENCEVILLE  MOCLDY    59  53  80 E3        30.11S
FLORA*         CLEAR     57  52  82 SE3       30.12S
FAIRFIELD*     CLEAR    N/A N/A N/A CALM      30.11F
ROBINSON*      CLEAR     60  53  77 CALM      30.11F
CARMI*         PTCLDY    60  55  85 NW3       30.11S
$$

ABBREVIATIONS USED IN REMARKS
   TC - TEMPERATURE IN CELSIUS
  WCI - WIND CHILL INDEX
   HX - HEAT INDEX
  VSB - VISIBILITY
$$



USA.gov is the U.S. government's official web portal to all federal, state and local government web resources and services.